Time,TemperatureF,DewpointF,PressureIn,WindDirection,WindDirectionDegrees,WindSpeedMPH,WindSpeedGustMPH,Humidity,HourlyPrecipIn,Conditions,Clouds,dailyrainin,SoftwareType,DateUTC
2013-10-10 00:03:00,52.9,36.7,-100.00,NW,315,0.0,2.0,54,0.00,,,0.00,meteohub,2013-10-10 07:03:00,
2013-10-10 00:08:00,52.9,36.7,-100.00,NW,312,2.0,2.0,54,0.00,,,0.00,meteohub,2013-10-10 07:08:00,
2013-10-10 00:13:00,52.9,36.7,-100.00,South,189,7.0,7.0,54,0.00,,,0.00,meteohub,2013-10-10 07:13:00,
2013-10-10 00:18:00,53.1,37.4,-100.00,SW,217,4.0,8.0,55,0.00,,,0.00,meteohub,2013-10-10 07:18:00,
2013-10-10 00:23:00,53.1,37.8,-100.00,WSW,246,6.0,8.0,56,0.00,,,0.00,meteohub,2013-10-10 07:23:00,
2013-10-10 00:28:00,53.1,37.8,-100.00,SW,231,8.0,8.0,56,0.00,,,0.00,meteohub,2013-10-10 07:28:00,
2013-10-10 00:33:00,53.1,37.8,-100.00,SW,235,10.0,10.0,56,0.00,,,0.00,meteohub,2013-10-10 07:33:00,
2013-10-10 00:38:00,53.1,37.4,-100.00,SW,233,3.0,9.0,55,0.00,,,0.00,meteohub,2013-10-10 07:38:00,
2013-10-10 00:43:00,53.1,37.4,-100.00,WSW,242,6.0,10.0,55,0.00,,,0.00,meteohub,2013-10-10 07:43:00,
2013-10-10 00:48:00,53.1,37.4,-100.00,SW,221,3.0,10.0,55,0.00,,,0.00,meteohub,2013-10-10 07:48:00,
2013-10-10 00:53:00,53.1,37.4,-100.00,SW,223,4.0,10.0,55,0.00,,,0.00,meteohub,2013-10-10 07:53:00,
2013-10-10 00:58:00,53.1,37.8,-100.00,WSW,246,10.0,10.0,56,0.00,,,0.00,meteohub,2013-10-10 07:58:00,
2013-10-10 01:03:00,53.1,37.4,-100.00,WSW,248,9.0,11.0,55,0.00,,,0.00,meteohub,2013-10-10 08:03:00,
2013-10-10 01:08:00,53.1,36.9,-100.00,WSW,240,4.0,11.0,54,0.00,,,0.00,meteohub,2013-10-10 08:08:00,
2013-10-10 01:13:00,53.1,36.9,-100.00,WSW,237,6.0,11.0,54,0.00,,,0.00,meteohub,2013-10-10 08:13:00,
2013-10-10 01:18:00,53.2,37.0,-100.00,WSW,244,4.0,11.0,54,0.00,,,0.00,meteohub,2013-10-10 08:18:00,
2013-10-10 01:23:00,53.2,36.5,-100.00,SSW,211,7.0,8.0,53,0.00,,,0.00,meteohub,2013-10-10 08:23:00,
2013-10-10 01:28:00,53.2,36.5,-100.00,SSW,212,3.0,9.0,53,0.00,,,0.00,meteohub,2013-10-10 08:28:00,
2013-10-10 01:33:00,53.2,36.5,-100.00,SSW,213,3.0,9.0,53,0.00,,,0.00,meteohub,2013-10-10 08:33:00,
2013-10-10 01:38:00,53.1,36.3,-100.00,SW,225,2.0,8.0,53,0.00,,,0.00,meteohub,2013-10-10 08:38:00,
2013-10-10 01:43:00,53.1,36.0,-100.00,SW,222,3.0,9.0,52,0.00,,,0.00,meteohub,2013-10-10 08:43:00,
2013-10-10 01:49:00,53.1,36.0,-100.00,SW,219,5.0,9.0,52,0.00,,,0.00,meteohub,2013-10-10 08:49:00,
2013-10-10 01:53:00,53.1,36.0,-100.00,WSW,238,3.0,8.0,52,0.00,,,0.00,meteohub,2013-10-10 08:53:00,
2013-10-10 01:59:00,52.9,35.8,-100.00,SW,221,2.0,8.0,52,0.00,,,0.00,meteohub,2013-10-10 08:59:00,
2013-10-10 02:04:00,52.9,36.1,-100.00,SSW,213,6.0,8.0,53,0.00,,,0.00,meteohub,2013-10-10 09:04:00,
2013-10-10 02:09:00,52.9,35.8,-100.00,SW,223,3.0,7.0,52,0.00,,,0.00,meteohub,2013-10-10 09:09:00,
2013-10-10 02:14:00,52.7,35.6,-100.00,SW,221,3.0,6.0,52,0.00,,,0.00,meteohub,2013-10-10 09:14:00,
2013-10-10 02:19:00,52.5,35.4,-100.00,SW,221,8.0,8.0,52,0.00,,,0.00,meteohub,2013-10-10 09:19:00,
2013-10-10 02:24:00,52.5,35.4,-100.00,SW,223,7.0,9.0,52,0.00,,,0.00,meteohub,2013-10-10 09:24:00,
2013-10-10 02:29:00,52.5,35.4,-100.00,SW,220,7.0,9.0,52,0.00,,,0.00,meteohub,2013-10-10 09:29:00,
2013-10-10 02:34:00,52.3,35.2,-100.00,SW,219,6.0,9.0,52,0.00,,,0.00,meteohub,2013-10-10 09:34:00,
2013-10-10 02:39:00,52.2,35.1,-100.00,SSW,204,7.0,9.0,52,0.00,,,0.00,meteohub,2013-10-10 09:39:00,
2013-10-10 02:44:00,52.0,34.9,-100.00,WSW,240,10.0,10.0,52,0.00,,,0.00,meteohub,2013-10-10 09:44:00,
2013-10-10 02:49:00,51.8,34.7,-100.00,WSW,255,9.0,11.0,52,0.00,,,0.00,meteohub,2013-10-10 09:49:00,
2013-10-10 02:54:00,51.6,34.5,-100.00,WSW,248,6.0,13.0,52,0.00,,,0.00,meteohub,2013-10-10 09:54:00,
2013-10-10 02:59:00,51.4,34.3,-100.00,SW,236,8.0,13.0,52,0.00,,,0.00,meteohub,2013-10-10 09:59:00,
2013-10-10 03:04:00,51.3,34.7,-100.00,SW,232,7.0,13.0,53,0.00,,,0.00,meteohub,2013-10-10 10:04:00,
2013-10-10 03:09:00,51.1,35.1,-100.00,WSW,242,7.0,13.0,54,0.00,,,0.00,meteohub,2013-10-10 10:09:00,
2013-10-10 03:14:00,51.1,35.4,-100.00,SW,233,8.0,14.0,55,0.00,,,0.00,meteohub,2013-10-10 10:14:00,
2013-10-10 03:19:00,50.9,35.2,-100.00,SW,232,6.0,14.0,55,0.00,,,0.00,meteohub,2013-10-10 10:19:00,
2013-10-10 03:24:00,50.7,35.1,-100.00,WSW,238,7.0,14.0,55,0.00,,,0.00,meteohub,2013-10-10 10:24:00,
2013-10-10 03:29:00,50.5,35.1,-100.00,SW,232,7.0,13.0,55,0.00,,,0.00,meteohub,2013-10-10 10:29:00,
2013-10-10 03:34:00,50.4,34.9,-100.00,WSW,244,9.0,11.0,55,0.00,,,0.00,meteohub,2013-10-10 10:34:00,
2013-10-10 03:39:00,50.4,35.8,-100.00,SW,236,7.0,13.0,57,0.00,,,0.00,meteohub,2013-10-10 10:39:00,
2013-10-10 03:44:00,50.4,35.8,-100.00,SW,234,2.0,13.0,57,0.00,,,0.00,meteohub,2013-10-10 10:44:00,
2013-10-10 03:49:00,50.2,35.6,-100.00,SSW,207,5.0,12.0,57,0.00,,,0.00,meteohub,2013-10-10 10:49:00,
2013-10-10 03:54:00,50.2,35.6,-100.00,SW,229,2.0,12.0,57,0.00,,,0.00,meteohub,2013-10-10 10:54:00,
2013-10-10 03:59:00,50.2,35.1,-100.00,WSW,242,8.0,12.0,56,0.00,,,0.00,meteohub,2013-10-10 10:59:00,
2013-10-10 04:04:00,50.0,34.5,-100.00,SSW,201,6.0,12.0,55,0.00,,,0.00,meteohub,2013-10-10 11:04:00,
2013-10-10 04:09:00,49.8,34.3,-100.00,SW,226,9.0,14.0,55,0.00,,,0.00,meteohub,2013-10-10 11:09:00,
2013-10-10 04:14:00,49.8,34.3,-100.00,SW,232,5.0,14.0,55,0.00,,,0.00,meteohub,2013-10-10 11:14:00,
2013-10-10 04:19:00,49.8,34.3,-100.00,SW,231,8.0,14.0,55,0.00,,,0.00,meteohub,2013-10-10 11:19:00,
2013-10-10 04:24:00,49.8,34.3,-100.00,WSW,249,8.0,12.0,55,0.00,,,0.00,meteohub,2013-10-10 11:24:00,
2013-10-10 04:29:00,49.6,34.2,-100.00,SW,236,7.0,11.0,55,0.00,,,0.00,meteohub,2013-10-10 11:29:00,
2013-10-10 04:34:00,49.6,34.2,-100.00,SW,224,3.0,11.0,55,0.00,,,0.00,meteohub,2013-10-10 11:34:00,
2013-10-10 04:39:00,49.6,34.5,-100.00,SW,221,3.0,9.0,56,0.00,,,0.00,meteohub,2013-10-10 11:39:00,
2013-10-10 04:44:00,49.6,35.1,-100.00,SW,214,3.0,9.0,57,0.00,,,0.00,meteohub,2013-10-10 11:44:00,
2013-10-10 04:49:00,49.5,34.0,-100.00,WSW,240,9.0,10.0,55,0.00,,,0.00,meteohub,2013-10-10 11:49:00,
2013-10-10 04:54:00,49.3,33.8,-100.00,WSW,238,3.0,14.0,55,0.00,,,0.00,meteohub,2013-10-10 11:54:00,
2013-10-10 04:59:00,49.3,33.8,-100.00,SW,227,4.0,14.0,55,0.00,,,0.00,meteohub,2013-10-10 11:59:00,
2013-10-10 05:04:00,49.3,34.2,-100.00,WSW,244,8.0,14.0,56,0.00,,,0.00,meteohub,2013-10-10 12:04:00,
2013-10-10 05:09:00,49.3,35.1,-100.00,SW,221,6.0,12.0,58,0.00,,,0.00,meteohub,2013-10-10 12:09:00,
2013-10-10 05:14:00,49.3,35.1,-100.00,SW,236,12.0,13.0,58,0.00,,,0.00,meteohub,2013-10-10 12:14:00,
2013-10-10 05:19:00,49.3,35.1,-100.00,WSW,248,10.0,15.0,58,0.00,,,0.00,meteohub,2013-10-10 12:19:00,
2013-10-10 05:24:00,49.3,35.1,-100.00,WSW,258,7.0,15.0,58,0.00,,,0.00,meteohub,2013-10-10 12:24:00,
2013-10-10 05:29:00,49.3,35.1,-100.00,SW,226,7.0,15.0,58,0.00,,,0.00,meteohub,2013-10-10 12:29:00,
2013-10-10 05:34:00,49.1,34.9,-100.00,WSW,238,10.0,16.0,58,0.00,,,0.00,meteohub,2013-10-10 12:34:00,
2013-10-10 05:39:00,48.9,34.9,-100.00,SW,225,7.0,16.0,58,0.00,,,0.00,meteohub,2013-10-10 12:39:00,
2013-10-10 05:44:00,48.9,35.2,-100.00,WSW,242,5.0,16.0,59,0.00,,,0.00,meteohub,2013-10-10 12:44:00,
2013-10-10 05:49:00,48.9,35.2,-100.00,West,262,7.0,14.0,59,0.00,,,0.00,meteohub,2013-10-10 12:49:00,
2013-10-10 05:54:00,48.9,34.3,-100.00,WSW,255,9.0,13.0,57,0.00,,,0.00,meteohub,2013-10-10 12:54:00,
2013-10-10 05:59:00,48.6,34.0,-100.00,WSW,250,13.0,13.0,57,0.00,,,0.00,meteohub,2013-10-10 12:59:00,
2013-10-10 06:04:00,48.4,34.7,-100.00,SW,228,13.0,13.0,59,0.00,,,0.00,meteohub,2013-10-10 13:04:00,
2013-10-10 06:09:00,48.2,35.4,-100.00,SW,229,10.0,17.0,61,0.00,,,0.00,meteohub,2013-10-10 13:09:00,
2013-10-10 06:14:00,48.4,36.0,-100.00,SSW,210,8.0,17.0,62,0.00,,,0.00,meteohub,2013-10-10 13:14:00,
2013-10-10 06:19:00,48.7,36.3,-100.00,WSW,238,10.0,17.0,62,0.00,,,0.00,meteohub,2013-10-10 13:19:00,
2013-10-10 06:24:00,48.7,35.4,-100.00,SW,229,15.0,16.0,60,0.00,,,0.00,meteohub,2013-10-10 13:24:00,
2013-10-10 06:29:00,48.6,35.2,-100.00,SSW,207,8.0,16.0,60,0.00,,,0.00,meteohub,2013-10-10 13:29:00,
2013-10-10 06:34:00,48.6,35.2,-100.00,SW,223,13.0,19.0,60,0.00,,,0.00,meteohub,2013-10-10 13:34:00,
2013-10-10 06:39:00,48.6,35.8,-100.00,WSW,257,10.0,19.0,61,0.00,,,0.00,meteohub,2013-10-10 13:39:00,
2013-10-10 06:44:00,48.7,36.0,-100.00,SW,236,11.0,19.0,61,0.00,,,0.00,meteohub,2013-10-10 13:44:00,
2013-10-10 06:49:00,48.7,35.4,-100.00,SW,215,8.0,18.0,60,0.00,,,0.00,meteohub,2013-10-10 13:49:00,
2013-10-10 06:54:00,48.9,35.2,-100.00,SW,226,4.0,18.0,59,0.00,,,0.00,meteohub,2013-10-10 13:54:00,
2013-10-10 06:59:00,48.9,34.9,-100.00,SW,232,6.0,14.0,58,0.00,,,0.00,meteohub,2013-10-10 13:59:00,
2013-10-10 07:04:00,48.9,34.3,-100.00,SW,236,9.0,12.0,57,0.00,,,0.00,meteohub,2013-10-10 14:04:00,
2013-10-10 07:09:00,49.1,34.9,-100.00,WSW,238,12.0,12.0,58,0.00,,,0.00,meteohub,2013-10-10 14:09:00,
2013-10-10 07:14:00,49.3,34.7,-100.00,SW,219,7.0,12.0,57,0.00,,,0.00,meteohub,2013-10-10 14:14:00,
2013-10-10 07:19:00,49.6,35.1,-100.00,SSW,201,7.0,12.0,57,0.00,,,0.00,meteohub,2013-10-10 14:19:00,
2013-10-10 07:24:00,49.8,34.3,-100.00,South,175,5.0,12.0,55,0.00,,,0.00,meteohub,2013-10-10 14:24:00,
2013-10-10 07:29:00,50.4,33.8,-100.00,SSW,213,4.0,11.0,53,0.00,,,0.00,meteohub,2013-10-10 14:29:00,
2013-10-10 07:34:00,50.7,33.8,-100.00,SSW,209,8.0,11.0,52,0.00,,,0.00,meteohub,2013-10-10 14:34:00,
2013-10-10 07:39:00,51.1,34.0,-100.00,SSW,211,9.0,11.0,52,0.00,,,0.00,meteohub,2013-10-10 14:39:00,
2013-10-10 07:44:00,51.3,34.2,-100.00,WSW,244,7.0,13.0,52,0.00,,,0.00,meteohub,2013-10-10 14:44:00,
2013-10-10 07:49:00,51.3,34.2,-100.00,SSW,211,7.0,16.0,52,0.00,,,0.00,meteohub,2013-10-10 14:49:00,
2013-10-10 07:54:00,51.3,35.2,-100.00,WSW,248,16.0,16.0,54,0.00,,,0.00,meteohub,2013-10-10 14:54:00,
2013-10-10 07:59:00,50.5,35.4,-100.00,WSW,240,6.0,21.0,56,0.00,,,0.00,meteohub,2013-10-10 14:59:00,
2013-10-10 08:04:00,49.8,35.2,-100.00,West,263,9.0,21.0,57,0.00,,,0.00,meteohub,2013-10-10 15:04:00,
2013-10-10 08:09:00,49.5,35.2,-100.00,West,261,6.0,21.0,58,0.00,,,0.00,meteohub,2013-10-10 15:09:00,
2013-10-10 08:14:00,49.5,35.8,-100.00,West,281,7.0,15.0,59,0.00,,,0.00,meteohub,2013-10-10 15:14:00,
2013-10-10 08:19:00,49.8,36.5,-100.00,West,274,6.0,14.0,60,0.00,,,0.00,meteohub,2013-10-10 15:19:00,
2013-10-10 08:24:00,50.4,37.0,-100.00,WSW,258,8.0,14.0,60,0.00,,,0.00,meteohub,2013-10-10 15:24:00,
2013-10-10 08:29:00,51.1,37.8,-100.00,SW,223,5.0,11.0,60,0.00,,,0.00,meteohub,2013-10-10 15:29:00,
2013-10-10 08:34:00,51.6,37.8,-100.00,WSW,243,1.0,12.0,59,0.00,,,0.00,meteohub,2013-10-10 15:34:00,
2013-10-10 08:39:00,52.2,37.8,-100.00,WSW,257,9.0,12.0,58,0.00,,,0.00,meteohub,2013-10-10 15:39:00,
2013-10-10 08:44:00,52.5,38.1,-100.00,WSW,252,8.0,12.0,58,0.00,,,0.00,meteohub,2013-10-10 15:44:00,
2013-10-10 08:49:00,52.9,38.1,-100.00,WSW,246,7.0,12.0,57,0.00,,,0.00,meteohub,2013-10-10 15:49:00,
2013-10-10 08:54:00,53.1,37.8,-100.00,West,274,4.0,12.0,56,0.00,,,0.00,meteohub,2013-10-10 15:54:00,
2013-10-10 08:59:00,53.4,38.1,-100.00,West,264,3.0,11.0,56,0.00,,,0.00,meteohub,2013-10-10 15:59:00,
2013-10-10 09:04:00,54.0,38.1,-100.00,West,272,1.0,10.0,55,0.00,,,0.00,meteohub,2013-10-10 16:04:00,
2013-10-10 09:09:00,54.5,37.8,-100.00,SSW,198,5.0,7.0,53,0.00,,,0.00,meteohub,2013-10-10 16:09:00,
2013-10-10 09:14:00,55.0,37.2,-100.00,SSW,208,0.0,6.0,51,0.00,,,0.00,meteohub,2013-10-10 16:14:00,
2013-10-10 09:19:00,55.8,37.4,-100.00,South,186,1.0,7.0,50,0.00,,,0.00,meteohub,2013-10-10 16:19:00,
2013-10-10 09:24:00,55.9,36.5,-100.00,South,182,0.0,7.0,48,0.00,,,0.00,meteohub,2013-10-10 16:24:00,
2013-10-10 09:29:00,56.1,36.7,-100.00,South,178,0.0,7.0,48,0.00,,,0.00,meteohub,2013-10-10 16:29:00,
2013-10-10 09:34:00,56.3,35.8,-100.00,South,174,2.0,2.0,46,0.00,,,0.00,meteohub,2013-10-10 16:34:00,
2013-10-10 09:39:00,56.8,34.5,-100.00,SSW,199,4.0,4.0,43,0.00,,,0.00,meteohub,2013-10-10 16:39:00,
2013-10-10 09:44:00,57.6,34.7,-100.00,South,190,3.0,9.0,42,0.00,,,0.00,meteohub,2013-10-10 16:44:00,
2013-10-10 09:49:00,58.1,34.5,-100.00,South,190,0.0,9.0,41,0.00,,,0.00,meteohub,2013-10-10 16:49:00,
2013-10-10 09:54:00,58.5,34.9,-100.00,South,170,1.0,9.0,41,0.00,,,0.00,meteohub,2013-10-10 16:54:00,
2013-10-10 09:59:00,59.2,34.9,-100.00,SSW,211,3.0,6.0,40,0.00,,,0.00,meteohub,2013-10-10 16:59:00,
2013-10-10 10:04:00,59.4,34.3,-100.00,South,169,1.0,6.0,39,0.00,,,0.00,meteohub,2013-10-10 17:04:00,
2013-10-10 10:09:00,59.7,34.7,-100.00,SSE,159,0.0,6.0,39,0.00,,,0.00,meteohub,2013-10-10 17:09:00,
2013-10-10 10:15:00,60.3,34.5,-100.00,SSW,200,4.0,5.0,38,0.00,,,0.00,meteohub,2013-10-10 17:15:00,
2013-10-10 10:19:00,60.8,34.3,-100.00,SW,221,7.0,9.0,37,0.00,,,0.00,meteohub,2013-10-10 17:19:00,
2013-10-10 10:24:00,61.2,34.7,-100.00,SSW,213,4.0,9.0,37,0.00,,,0.00,meteohub,2013-10-10 17:24:00,
2013-10-10 10:29:00,61.9,34.0,-100.00,SSW,206,8.0,11.0,35,0.00,,,0.00,meteohub,2013-10-10 17:29:00,
2013-10-10 10:34:00,62.4,34.3,-100.00,South,191,10.0,11.0,35,0.00,,,0.00,meteohub,2013-10-10 17:34:00,
2013-10-10 10:39:00,63.0,34.9,-100.00,SW,217,10.0,11.0,35,0.00,,,0.00,meteohub,2013-10-10 17:39:00,
2013-10-10 10:44:00,63.3,34.5,-100.00,SSW,196,7.0,15.0,34,0.00,,,0.00,meteohub,2013-10-10 17:44:00,
2013-10-10 10:50:00,63.0,34.9,-100.00,South,191,8.0,15.0,35,0.00,,,0.00,meteohub,2013-10-10 17:50:00,
2013-10-10 10:54:00,63.1,34.3,-100.00,SW,215,8.0,13.0,34,0.00,,,0.00,meteohub,2013-10-10 17:54:00,
2013-10-10 10:59:00,63.3,34.5,-100.00,SSW,198,7.0,12.0,34,0.00,,,0.00,meteohub,2013-10-10 17:59:00,
2013-10-10 11:05:00,63.9,35.6,-100.00,WSW,240,8.0,11.0,35,0.00,,,0.00,meteohub,2013-10-10 18:05:00,
2013-10-10 11:09:00,63.9,36.3,-100.00,SSE,147,1.0,12.0,36,0.00,,,0.00,meteohub,2013-10-10 18:09:00,
2013-10-10 11:15:00,64.0,35.1,-100.00,SE,145,1.0,12.0,34,0.00,,,0.00,meteohub,2013-10-10 18:15:00,
2013-10-10 11:19:00,64.0,35.8,-100.00,SSW,207,4.0,12.0,35,0.00,,,0.00,meteohub,2013-10-10 18:19:00,
2013-10-10 11:24:00,64.6,34.9,-100.00,South,176,6.0,8.0,33,0.00,,,0.00,meteohub,2013-10-10 18:24:00,
2013-10-10 11:29:00,64.9,34.3,-100.00,SSE,152,2.0,8.0,32,0.00,,,0.00,meteohub,2013-10-10 18:29:00,
2013-10-10 11:34:00,65.1,34.5,-100.00,SSE,147,0.0,9.0,32,0.00,,,0.00,meteohub,2013-10-10 18:34:00,
2013-10-10 11:39:00,65.7,34.2,-100.00,SE,141,5.0,9.0,31,0.00,,,0.00,meteohub,2013-10-10 18:39:00,
2013-10-10 11:45:00,65.8,34.3,-100.00,South,178,6.0,9.0,31,0.00,,,0.00,meteohub,2013-10-10 18:45:00,
2013-10-10 11:50:00,66.2,33.8,-100.00,SSE,157,5.0,9.0,30,0.00,,,0.00,meteohub,2013-10-10 18:50:00,
2013-10-10 11:54:00,66.4,34.9,-100.00,SSW,207,7.0,10.0,31,0.00,,,0.00,meteohub,2013-10-10 18:54:00,
2013-10-10 12:00:00,66.7,34.3,-100.00,SW,226,5.0,10.0,30,0.00,,,0.00,meteohub,2013-10-10 19:00:00,
2013-10-10 12:05:00,66.4,34.9,-100.00,West,269,3.0,11.0,31,0.00,,,0.00,meteohub,2013-10-10 19:05:00,
2013-10-10 12:10:00,66.6,34.2,-100.00,SSE,148,5.0,12.0,30,0.00,,,0.00,meteohub,2013-10-10 19:10:00,
2013-10-10 12:15:00,66.9,33.6,-100.00,South,176,0.0,12.0,29,0.00,,,0.00,meteohub,2013-10-10 19:15:00,
2013-10-10 12:20:00,66.6,33.3,-100.00,South,173,1.0,7.0,29,0.00,,,0.00,meteohub,2013-10-10 19:20:00,
2013-10-10 12:25:00,66.6,34.2,-100.00,WSW,237,4.0,7.0,30,0.00,,,0.00,meteohub,2013-10-10 19:25:00,
2013-10-10 12:30:00,66.7,34.3,-100.00,WSW,252,7.0,7.0,30,0.00,,,0.00,meteohub,2013-10-10 19:30:00,
2013-10-10 12:35:00,66.6,33.3,-100.00,West,277,2.0,8.0,29,0.00,,,0.00,meteohub,2013-10-10 19:35:00,
2013-10-10 12:40:00,66.7,34.3,-100.00,SSW,192,5.0,8.0,30,0.00,,,0.00,meteohub,2013-10-10 19:40:00,
2013-10-10 12:45:00,67.8,34.3,-100.00,SSE,156,6.0,8.0,29,0.00,,,0.00,meteohub,2013-10-10 19:45:00,
2013-10-10 12:50:00,68.5,34.2,-100.00,South,190,0.0,8.0,28,0.00,,,0.00,meteohub,2013-10-10 19:50:00,
2013-10-10 12:55:00,68.5,34.2,-100.00,ENE,59,1.0,8.0,28,0.00,,,0.00,meteohub,2013-10-10 19:55:00,
2013-10-10 13:00:00,68.4,33.1,-100.00,West,277,3.0,8.0,27,0.00,,,0.00,meteohub,2013-10-10 20:00:00,
2013-10-10 13:05:00,67.8,33.4,-100.00,NW,310,0.0,8.0,28,0.00,,,0.00,meteohub,2013-10-10 20:05:00,
2013-10-10 13:10:00,68.4,34.0,-100.00,South,178,4.0,6.0,28,0.00,,,0.00,meteohub,2013-10-10 20:10:00,
2013-10-10 13:15:00,69.1,33.6,-100.00,SSE,167,4.0,10.0,27,0.00,,,0.00,meteohub,2013-10-10 20:15:00,
2013-10-10 13:20:00,69.1,32.7,-100.00,NW,313,1.0,10.0,26,0.00,,,0.00,meteohub,2013-10-10 20:20:00,
2013-10-10 13:25:00,69.1,33.6,-100.00,NW,312,0.0,10.0,27,0.00,,,0.00,meteohub,2013-10-10 20:25:00,
2013-10-10 13:30:00,69.1,32.7,-100.00,SSW,208,4.0,6.0,26,0.00,,,0.00,meteohub,2013-10-10 20:30:00,
2013-10-10 13:31:00,69.1,33.6,-100.00,SSW,205,0.0,6.0,27,0.00,,,0.00,meteohub,2013-10-10 20:31:00,
2013-10-10 13:36:00,69.6,34.2,-100.00,SSE,151,3.0,4.0,27,0.00,,,0.00,meteohub,2013-10-10 20:36:00,
2013-10-10 13:41:00,70.2,34.7,-100.00,SE,134,4.0,9.0,27,0.00,,,0.00,meteohub,2013-10-10 20:41:00,
2013-10-10 13:46:00,70.5,34.0,-100.00,WSW,242,2.0,9.0,26,0.00,,,0.00,meteohub,2013-10-10 20:46:00,
2013-10-10 13:51:00,70.5,34.0,-100.00,WSW,250,3.0,9.0,26,0.00,,,0.00,meteohub,2013-10-10 20:51:00,
2013-10-10 13:56:00,70.5,34.0,-100.00,SW,220,1.0,9.0,26,0.00,,,0.00,meteohub,2013-10-10 20:56:00,
2013-10-10 14:01:00,70.7,33.1,-100.00,West,279,5.0,11.0,25,0.00,,,0.00,meteohub,2013-10-10 21:01:00,
2013-10-10 14:06:00,70.7,33.1,-100.00,ESE,105,2.0,11.0,25,0.00,,,0.00,meteohub,2013-10-10 21:06:00,
2013-10-10 14:11:00,70.9,33.3,-100.00,ENE,68,3.0,11.0,25,0.00,,,0.00,meteohub,2013-10-10 21:11:00,
2013-10-10 14:16:00,70.9,33.3,-100.00,ENE,73,3.0,7.0,25,0.00,,,0.00,meteohub,2013-10-10 21:16:00,
2013-10-10 14:21:00,71.2,33.6,-100.00,ESE,115,5.0,6.0,25,0.00,,,0.00,meteohub,2013-10-10 21:21:00,
2013-10-10 14:26:00,71.4,32.7,-100.00,East,101,0.0,6.0,24,0.00,,,0.00,meteohub,2013-10-10 21:26:00,
2013-10-10 14:31:00,71.6,32.9,-100.00,SW,225,4.0,10.0,24,0.00,,,0.00,meteohub,2013-10-10 21:31:00,
2013-10-10 14:36:00,71.4,32.7,-100.00,West,263,1.0,10.0,24,0.00,,,0.00,meteohub,2013-10-10 21:36:00,
2013-10-10 14:41:00,71.6,32.9,-100.00,East,97,1.0,10.0,24,0.00,,,0.00,meteohub,2013-10-10 21:41:00,
2013-10-10 14:46:00,72.1,33.4,-100.00,SSW,207,0.0,9.0,24,0.00,,,0.00,meteohub,2013-10-10 21:46:00,
2013-10-10 14:51:00,72.3,33.4,-100.00,South,180,3.0,9.0,24,0.00,,,0.00,meteohub,2013-10-10 21:51:00,
2013-10-10 14:56:00,72.7,32.7,-100.00,South,182,10.0,10.0,23,0.00,,,0.00,meteohub,2013-10-10 21:56:00,
2013-10-10 15:01:00,72.9,32.9,-100.00,ESE,122,2.0,10.0,23,0.00,,,0.00,meteohub,2013-10-10 22:01:00,
2013-10-10 15:06:00,72.9,31.8,-100.00,East,101,7.0,13.0,22,0.00,,,0.00,meteohub,2013-10-10 22:06:00,
2013-10-10 15:11:00,72.9,31.8,-100.00,ESE,103,9.0,13.0,22,0.00,,,0.00,meteohub,2013-10-10 22:11:00,
2013-10-10 15:16:00,73.0,32.0,-100.00,East,100,8.0,13.0,22,0.00,,,0.00,meteohub,2013-10-10 22:16:00,
2013-10-10 15:21:00,73.2,30.9,-100.00,SSE,161,9.0,15.0,21,0.00,,,0.00,meteohub,2013-10-10 22:21:00,
2013-10-10 15:26:00,73.2,32.2,-100.00,South,185,2.0,15.0,22,0.00,,,0.00,meteohub,2013-10-10 22:26:00,
2013-10-10 15:31:00,73.6,32.4,-100.00,SE,136,11.0,15.0,22,0.00,,,0.00,meteohub,2013-10-10 22:31:00,
2013-10-10 15:36:00,73.6,31.3,-100.00,SW,225,4.0,12.0,21,0.00,,,0.00,meteohub,2013-10-10 22:36:00,
2013-10-10 15:41:00,73.8,31.5,-100.00,SSE,153,9.0,11.0,21,0.00,,,0.00,meteohub,2013-10-10 22:41:00,
2013-10-10 15:46:00,73.8,31.5,-100.00,SE,136,6.0,13.0,21,0.00,,,0.00,meteohub,2013-10-10 22:46:00,
2013-10-10 15:51:00,73.9,32.7,-100.00,SE,142,7.0,13.0,22,0.00,,,0.00,meteohub,2013-10-10 22:51:00,
2013-10-10 15:56:00,73.8,32.5,-100.00,ESE,113,4.0,14.0,22,0.00,,,0.00,meteohub,2013-10-10 22:56:00,
2013-10-10 16:01:00,73.9,33.8,-100.00,SSE,161,8.0,14.0,23,0.00,,,0.00,meteohub,2013-10-10 23:01:00,
2013-10-10 16:06:00,74.1,34.0,-100.00,SSE,148,2.0,14.0,23,0.00,,,0.00,meteohub,2013-10-10 23:06:00,
2013-10-10 16:11:00,74.1,34.0,-100.00,ESE,121,9.0,14.0,23,0.00,,,0.00,meteohub,2013-10-10 23:11:00,
2013-10-10 16:16:00,74.1,34.0,-100.00,SE,146,13.0,15.0,23,0.00,,,0.00,meteohub,2013-10-10 23:16:00,
2013-10-10 16:21:00,73.9,33.8,-100.00,South,189,10.0,16.0,23,0.00,,,0.00,meteohub,2013-10-10 23:21:00,
2013-10-10 16:26:00,74.1,34.0,-100.00,South,188,12.0,16.0,23,0.00,,,0.00,meteohub,2013-10-10 23:26:00,
2013-10-10 16:31:00,73.8,33.6,-100.00,SSW,197,16.0,18.0,23,0.00,,,0.00,meteohub,2013-10-10 23:31:00,
2013-10-10 16:36:00,73.6,33.4,-100.00,SSE,151,9.0,19.0,23,0.00,,,0.00,meteohub,2013-10-10 23:36:00,
2013-10-10 16:41:00,73.2,33.3,-100.00,South,181,12.0,19.0,23,0.00,,,0.00,meteohub,2013-10-10 23:41:00,
2013-10-10 16:46:00,73.2,33.3,-100.00,South,182,9.0,19.0,23,0.00,,,0.00,meteohub,2013-10-10 23:46:00,
2013-10-10 16:51:00,73.2,34.3,-100.00,SE,140,8.0,16.0,24,0.00,,,0.00,meteohub,2013-10-10 23:51:00,
2013-10-10 16:56:00,73.0,34.2,-100.00,SSE,154,9.0,16.0,24,0.00,,,0.00,meteohub,2013-10-10 23:56:00,
2013-10-10 17:01:00,73.0,34.2,-100.00,SE,126,4.0,16.0,24,0.00,,,0.00,meteohub,2013-10-11 00:01:00,
2013-10-10 17:06:00,73.0,34.2,-100.00,South,190,5.0,16.0,24,0.00,,,0.00,meteohub,2013-10-11 00:06:00,
2013-10-10 17:11:00,72.9,35.1,-100.00,South,173,6.0,14.0,25,0.00,,,0.00,meteohub,2013-10-11 00:11:00,
2013-10-10 17:17:00,72.7,34.9,-100.00,South,187,8.0,14.0,25,0.00,,,0.00,meteohub,2013-10-11 00:17:00,
2013-10-10 17:22:00,72.7,34.9,-100.00,SSW,206,7.0,14.0,25,0.00,,,0.00,meteohub,2013-10-11 00:22:00,
2013-10-10 17:27:00,72.5,34.7,-100.00,SSW,207,5.0,17.0,25,0.00,,,0.00,meteohub,2013-10-11 00:27:00,
2013-10-10 17:32:00,72.1,34.3,-100.00,SSW,197,7.0,17.0,25,0.00,,,0.00,meteohub,2013-10-11 00:32:00,
2013-10-10 17:37:00,72.0,35.2,-100.00,South,187,13.0,17.0,26,0.00,,,0.00,meteohub,2013-10-11 00:37:00,
2013-10-10 17:42:00,71.8,35.1,-100.00,SSW,197,13.0,16.0,26,0.00,,,0.00,meteohub,2013-10-11 00:42:00,
2013-10-10 17:47:00,71.2,35.6,-100.00,South,180,10.0,17.0,27,0.00,,,0.00,meteohub,2013-10-11 00:47:00,
2013-10-10 17:52:00,71.1,35.4,-100.00,South,179,6.0,17.0,27,0.00,,,0.00,meteohub,2013-10-11 00:52:00,
2013-10-10 17:57:00,70.9,35.2,-100.00,SSW,196,9.0,17.0,27,0.00,,,0.00,meteohub,2013-10-11 00:57:00,
2013-10-10 18:02:00,70.5,34.9,-100.00,SSW,204,6.0,19.0,27,0.00,,,0.00,meteohub,2013-10-11 01:02:00,
2013-10-10 18:07:00,70.3,35.6,-100.00,South,175,7.0,19.0,28,0.00,,,0.00,meteohub,2013-10-11 01:07:00,
2013-10-10 18:12:00,70.0,35.4,-100.00,SSE,167,8.0,19.0,28,0.00,,,0.00,meteohub,2013-10-11 01:12:00,
2013-10-10 18:17:00,69.6,36.0,-100.00,South,186,11.0,18.0,29,0.00,,,0.00,meteohub,2013-10-11 01:17:00,
2013-10-10 18:22:00,69.4,35.8,-100.00,South,183,10.0,18.0,29,0.00,,,0.00,meteohub,2013-10-11 01:22:00,
2013-10-10 18:27:00,69.3,35.6,-100.00,SSE,162,8.0,18.0,29,0.00,,,0.00,meteohub,2013-10-11 01:27:00,
2013-10-10 18:32:00,68.9,35.4,-100.00,South,176,7.0,15.0,29,0.00,,,0.00,meteohub,2013-10-11 01:32:00,
2013-10-10 18:37:00,68.5,36.0,-100.00,South,169,11.0,15.0,30,0.00,,,0.00,meteohub,2013-10-11 01:37:00,
2013-10-10 18:42:00,68.2,35.6,-100.00,SSE,147,6.0,15.0,30,0.00,,,0.00,meteohub,2013-10-11 01:42:00,
2013-10-10 18:47:00,68.0,36.3,-100.00,SSE,165,7.0,13.0,31,0.00,,,0.00,meteohub,2013-10-11 01:47:00,
2013-10-10 18:52:00,67.8,36.1,-100.00,SSE,155,8.0,13.0,31,0.00,,,0.00,meteohub,2013-10-11 01:52:00,
2013-10-10 18:57:00,67.5,35.8,-100.00,South,180,3.0,12.0,31,0.00,,,0.00,meteohub,2013-10-11 01:57:00,
2013-10-10 19:02:00,67.3,35.6,-100.00,SW,235,3.0,12.0,31,0.00,,,0.00,meteohub,2013-10-11 02:02:00,
2013-10-10 19:07:00,66.9,35.2,-100.00,SW,222,3.0,11.0,31,0.00,,,0.00,meteohub,2013-10-11 02:07:00,
2013-10-10 19:12:00,66.7,35.1,-100.00,South,180,4.0,9.0,31,0.00,,,0.00,meteohub,2013-10-11 02:12:00,
2013-10-10 19:17:00,66.4,34.9,-100.00,South,184,6.0,11.0,31,0.00,,,0.00,meteohub,2013-10-11 02:17:00,
2013-10-10 19:22:00,65.8,35.2,-100.00,SSW,202,2.0,11.0,32,0.00,,,0.00,meteohub,2013-10-11 02:22:00,
2013-10-10 19:27:00,65.7,35.1,-100.00,SW,218,4.0,11.0,32,0.00,,,0.00,meteohub,2013-10-11 02:27:00,
2013-10-10 19:32:00,65.1,35.2,-100.00,SW,215,11.0,12.0,33,0.00,,,0.00,meteohub,2013-10-11 02:32:00,
2013-10-10 19:37:00,64.8,35.1,-100.00,SW,225,6.0,12.0,33,0.00,,,0.00,meteohub,2013-10-11 02:37:00,
2013-10-10 19:42:00,64.6,35.6,-100.00,SSW,213,7.0,12.0,34,0.00,,,0.00,meteohub,2013-10-11 02:42:00,
2013-10-10 19:47:00,64.2,35.2,-100.00,SW,225,5.0,12.0,34,0.00,,,0.00,meteohub,2013-10-11 02:47:00,
2013-10-10 19:52:00,64.0,35.1,-100.00,SW,230,7.0,11.0,34,0.00,,,0.00,meteohub,2013-10-11 02:52:00,
2013-10-10 19:57:00,63.9,35.6,-100.00,WSW,256,6.0,11.0,35,0.00,,,0.00,meteohub,2013-10-11 02:57:00,
2013-10-10 20:02:00,63.7,35.6,-100.00,SW,235,5.0,12.0,35,0.00,,,0.00,meteohub,2013-10-11 03:02:00,
2013-10-10 20:07:00,63.3,35.2,-100.00,SW,217,6.0,12.0,35,0.00,,,0.00,meteohub,2013-10-11 03:07:00,
2013-10-10 20:12:00,63.3,35.2,-100.00,WSW,246,3.0,13.0,35,0.00,,,0.00,meteohub,2013-10-11 03:12:00,
2013-10-10 20:17:00,63.3,35.2,-100.00,SW,215,2.0,13.0,35,0.00,,,0.00,meteohub,2013-10-11 03:17:00,
2013-10-10 20:22:00,63.1,35.1,-100.00,SSW,202,7.0,13.0,35,0.00,,,0.00,meteohub,2013-10-11 03:22:00,
2013-10-10 20:27:00,63.1,35.8,-100.00,SW,234,8.0,12.0,36,0.00,,,0.00,meteohub,2013-10-11 03:27:00,
2013-10-10 20:32:00,63.0,35.6,-100.00,SSW,211,4.0,12.0,36,0.00,,,0.00,meteohub,2013-10-11 03:32:00,
2013-10-10 20:37:00,63.0,36.3,-100.00,SSW,197,4.0,12.0,37,0.00,,,0.00,meteohub,2013-10-11 03:37:00,
2013-10-10 20:42:00,62.8,36.1,-100.00,SSW,211,3.0,12.0,37,0.00,,,0.00,meteohub,2013-10-11 03:42:00,
2013-10-10 20:47:00,62.4,36.5,-100.00,SW,221,8.0,12.0,38,0.00,,,0.00,meteohub,2013-10-11 03:47:00,
2013-10-10 20:53:00,62.2,36.3,-100.00,SSW,210,6.0,11.0,38,0.00,,,0.00,meteohub,2013-10-11 03:53:00,
2013-10-10 20:57:00,62.2,36.3,-100.00,SSW,203,7.0,11.0,38,0.00,,,0.00,meteohub,2013-10-11 03:57:00,
2013-10-10 21:01:00,62.1,36.9,-100.00,SSW,201,6.0,11.0,39,0.00,,,0.00,meteohub,2013-10-11 04:01:00,
2013-10-10 21:02:00,62.1,36.9,-100.00,SW,226,6.0,11.0,39,0.00,,,0.00,meteohub,2013-10-11 04:02:00,
2013-10-10 21:07:00,61.9,37.2,-100.00,SW,228,3.0,11.0,40,0.00,,,0.00,meteohub,2013-10-11 04:07:00,
2013-10-10 21:12:00,61.9,37.2,-100.00,SW,236,8.0,11.0,40,0.00,,,0.00,meteohub,2013-10-11 04:12:00,
2013-10-10 21:17:00,61.7,37.2,-100.00,WSW,238,13.0,13.0,40,0.00,,,0.00,meteohub,2013-10-11 04:17:00,
2013-10-10 21:22:00,61.5,36.3,-100.00,SW,235,11.0,15.0,39,0.00,,,0.00,meteohub,2013-10-11 04:22:00,
2013-10-10 21:27:00,61.5,36.3,-100.00,SW,217,6.0,15.0,39,0.00,,,0.00,meteohub,2013-10-11 04:27:00,
2013-10-10 21:32:00,61.3,36.1,-100.00,SW,226,7.0,15.0,39,0.00,,,0.00,meteohub,2013-10-11 04:32:00,
2013-10-10 21:37:00,61.2,36.0,-100.00,SSW,200,7.0,15.0,39,0.00,,,0.00,meteohub,2013-10-11 04:37:00,
2013-10-10 21:42:00,61.2,36.0,-100.00,SW,227,5.0,14.0,39,0.00,,,0.00,meteohub,2013-10-11 04:42:00,
2013-10-10 21:47:00,61.0,36.5,-100.00,SW,236,12.0,13.0,40,0.00,,,0.00,meteohub,2013-10-11 04:47:00,
2013-10-10 21:52:00,60.8,36.3,-100.00,WSW,243,8.0,13.0,40,0.00,,,0.00,meteohub,2013-10-11 04:52:00,
2013-10-10 21:57:00,60.6,36.1,-100.00,South,181,4.0,13.0,40,0.00,,,0.00,meteohub,2013-10-11 04:57:00,
2013-10-10 22:02:00,60.6,36.1,-100.00,SW,223,4.0,13.0,40,0.00,,,0.00,meteohub,2013-10-11 05:02:00,
2013-10-10 22:07:00,60.6,36.1,-100.00,SW,236,4.0,12.0,40,0.00,,,0.00,meteohub,2013-10-11 05:07:00,
2013-10-10 22:12:00,60.4,36.0,-100.00,SW,221,6.0,12.0,40,0.00,,,0.00,meteohub,2013-10-11 05:12:00,
2013-10-10 22:17:00,60.4,36.0,-100.00,SW,223,11.0,11.0,40,0.00,,,0.00,meteohub,2013-10-11 05:17:00,
2013-10-10 22:22:00,60.3,35.8,-100.00,SSW,201,7.0,11.0,40,0.00,,,0.00,meteohub,2013-10-11 05:22:00,
2013-10-10 22:27:00,60.3,35.8,-100.00,South,169,6.0,11.0,40,0.00,,,0.00,meteohub,2013-10-11 05:27:00,
2013-10-10 22:32:00,60.3,35.8,-100.00,SSE,148,6.0,11.0,40,0.00,,,0.00,meteohub,2013-10-11 05:32:00,
2013-10-10 22:37:00,60.4,36.0,-100.00,South,177,5.0,11.0,40,0.00,,,0.00,meteohub,2013-10-11 05:37:00,
2013-10-10 22:42:00,60.4,36.0,-100.00,SSE,165,5.0,11.0,40,0.00,,,0.00,meteohub,2013-10-11 05:42:00,
2013-10-10 22:47:00,60.4,36.0,-100.00,South,188,7.0,10.0,40,0.00,,,0.00,meteohub,2013-10-11 05:47:00,
2013-10-10 22:52:00,60.4,36.0,-100.00,South,177,4.0,10.0,40,0.00,,,0.00,meteohub,2013-10-11 05:52:00,
2013-10-10 22:57:00,60.4,36.0,-100.00,SSW,196,7.0,13.0,40,0.00,,,0.00,meteohub,2013-10-11 05:57:00,
2013-10-10 23:02:00,60.4,36.0,-100.00,SW,225,5.0,13.0,40,0.00,,,0.00,meteohub,2013-10-11 06:02:00,
2013-10-10 23:08:00,60.3,35.8,-100.00,SW,218,3.0,13.0,40,0.00,,,0.00,meteohub,2013-10-11 06:08:00,
2013-10-10 23:13:00,60.3,35.8,-100.00,SW,226,5.0,12.0,40,0.00,,,0.00,meteohub,2013-10-11 06:13:00,
2013-10-10 23:18:00,60.1,35.6,-100.00,SSW,207,5.0,10.0,40,0.00,,,0.00,meteohub,2013-10-11 06:18:00,
2013-10-10 23:22:00,59.9,36.1,-100.00,SSW,196,5.0,9.0,41,0.00,,,0.00,meteohub,2013-10-11 06:22:00,
2013-10-10 23:28:00,59.9,36.1,-100.00,SSW,212,5.0,9.0,41,0.00,,,0.00,meteohub,2013-10-11 06:28:00,
2013-10-10 23:32:00,59.9,35.6,-100.00,SW,228,11.0,11.0,40,0.00,,,0.00,meteohub,2013-10-11 06:32:00,
2013-10-10 23:38:00,59.7,36.0,-100.00,SSW,213,2.0,11.0,41,0.00,,,0.00,meteohub,2013-10-11 06:38:00,
2013-10-10 23:43:00,59.5,35.8,-100.00,WSW,244,5.0,11.0,41,0.00,,,0.00,meteohub,2013-10-11 06:43:00,
2013-10-10 23:48:00,59.4,36.3,-100.00,WSW,257,4.0,11.0,42,0.00,,,0.00,meteohub,2013-10-11 06:48:00,
2013-10-10 23:53:00,59.4,36.3,-100.00,WSW,248,2.0,10.0,42,0.00,,,0.00,meteohub,2013-10-11 06:53:00,
2013-10-10 23:58:00,59.2,36.1,-100.00,SSW,213,5.0,10.0,42,0.00,,,0.00,meteohub,2013-10-11 06:58:00,